Spearfish, SD

1:33 PM MST on February 11, 2016 (GMT -0700)
Black Hills-Ice

Weather History for KSPF - May, 2013

Change the Weather History Date:

Friday, May 31, 2013

  Actual Average (KEFC) Record (KEFC)
Temperature  
Mean Temperature 46 °F -  
Max Temperature 48 °F 71 °F 89 °F (1960)
Min Temperature 44 °F 45 °F 35 °F (1956)
Degree Days  
Heating Degree Days 19    
Moisture  
Dew Point 43 °F    
Average Humidity 89    
Maximum Humidity 100    
Minimum Humidity 76    
Precipitation  
Precipitation 5.17 in - - ()
Sea Level Pressure  
Sea Level Pressure 29.70 in    
Wind  
Wind Speed 22 mph (WNW)    
Max Wind Speed 28 mph    
Max Gust Speed 40 mph    
Visibility 5 miles    
Events Rain    
Averages and records for this station are not official NWS values.
T = Trace of Precipitation, MM = Missing Value Source: NWS Daily Summary

Daily Weather History Graph

Daily Weather History Graph

Search for Another Location

Airport or City:

Trip Planner

Search our weather history database for the weather conditions in past years. The results will help you decide how hot, cold, wet, or windy it might be!

Date:

Astronomy

May. 31, 2013 Rise Set
Actual Time 6:13 AM CDT 9:32 PM CDT
Civil Twilight 5:38 AM CDT 10:08 PM CDT
Nautical Twilight 4:51 AM CDT 10:54 PM CDT
Astronomical Twilight 3:54 AM CDT 11:52 PM CDT
Moon 1:56 AM CDT (5/31) 1:44 PM CDT (5/31)
Length of Visible Light 16h 29m
Length of Day
15h 18m
Waning Gibbous, 51% of the Moon is Illuminated
May 31
Waning Gibbous
May 31
Last Quarter
Jun 8
New
Jun 16
First Quarter
Jun 23
Full

Hourly Weather History & Observations

Time (CDT) Temp. Windchill Dew Point Humidity Pressure Visibility Wind Dir Wind Speed Gust Speed Precip Events Conditions
12:15 AM 46.4 °F 39.2 °F 44.6 °F 93% 29.59 in 5.0 mi West 18.4 mph 27.6 mph 0.03 in Rain Light Rain
12:35 AM 46.4 °F 38.5 °F 42.8 °F 87% 29.59 in 5.0 mi West 21.9 mph 29.9 mph 0.06 in Rain Light Rain
12:55 AM 46.4 °F 37.9 °F 42.8 °F 87% 29.59 in 5.0 mi West 25.3 mph 33.4 mph 0.16 in Rain Rain
1:15 AM 46.4 °F 38.1 °F 42.8 °F 87% 29.59 in 10.0 mi West 24.2 mph 32.2 mph N/A   Overcast
1:35 AM 46.4 °F 38.3 °F 41.0 °F 81% 29.58 in 10.0 mi West 23.0 mph 34.5 mph N/A   Overcast
1:55 AM 46.4 °F 38.5 °F 41.0 °F 81% 29.58 in 10.0 mi West 21.9 mph 31.1 mph N/A   Overcast
2:15 AM 46.4 °F 37.7 °F 41.0 °F 81% 29.57 in 10.0 mi West 26.5 mph 36.8 mph N/A   Overcast
2:35 AM 46.4 °F 38.1 °F 41.0 °F 81% 29.57 in 10.0 mi West 24.2 mph 34.5 mph N/A   Overcast
2:55 AM 46.4 °F 38.1 °F 41.0 °F 81% 29.57 in 10.0 mi West 24.2 mph 38.0 mph N/A Rain Light Rain
3:15 AM 46.4 °F 37.5 °F 41.0 °F 81% 29.56 in 10.0 mi West 27.6 mph 38.0 mph N/A   Overcast
3:35 AM 46.4 °F 37.5 °F 41.0 °F 81% 29.56 in 10.0 mi West 27.6 mph 36.8 mph N/A   Mostly Cloudy
3:55 AM 46.4 °F 39.0 °F 41.0 °F 81% 29.57 in 10.0 mi West 19.6 mph 34.5 mph N/A   Mostly Cloudy
4:15 AM 46.4 °F 38.3 °F 41.0 °F 81% 29.57 in 10.0 mi West 23.0 mph 38.0 mph N/A   Overcast
4:35 AM 46.4 °F 39.5 °F 41.0 °F 81% 29.57 in 10.0 mi West 17.3 mph 40.3 mph N/A   Overcast
4:55 AM 46.4 °F 39.0 °F 41.0 °F 81% 29.57 in 9.0 mi West 19.6 mph 36.8 mph N/A   Mostly Cloudy
5:15 AM 46.4 °F 37.7 °F 41.0 °F 81% 29.57 in 10.0 mi West 26.5 mph 38.0 mph N/A   Overcast
5:35 AM 46.4 °F 37.9 °F 41.0 °F 81% 29.57 in 10.0 mi West 25.3 mph 38.0 mph N/A   Overcast
5:55 AM 48.2 °F - 41.0 °F 76% 29.57 in 10.0 mi West 24.2 mph 34.5 mph N/A   Overcast
6:15 AM 48.2 °F - 41.0 °F 76% 29.57 in 10.0 mi West 24.2 mph 33.4 mph N/A   Overcast
6:35 AM 46.4 °F 38.1 °F 41.0 °F 81% 29.58 in 10.0 mi West 24.2 mph 38.0 mph N/A   Overcast
6:55 AM 46.4 °F 38.5 °F 41.0 °F 81% 29.58 in 10.0 mi West 21.9 mph 32.2 mph N/A Rain Light Rain
7:15 AM 46.4 °F 37.7 °F 41.0 °F 81% 29.58 in 9.0 mi West 26.5 mph 38.0 mph 0.01 in Rain Light Rain
7:35 AM 46.4 °F 38.5 °F 41.0 °F 81% 29.59 in 10.0 mi West 21.9 mph 32.2 mph 0.02 in Rain Light Rain
7:55 AM 46.4 °F 38.1 °F 41.0 °F 81% 29.60 in 10.0 mi West 24.2 mph 34.5 mph 0.02 in Rain Light Rain
8:15 AM 46.4 °F 39.0 °F 41.0 °F 81% 29.59 in 9.0 mi West 19.6 mph 34.5 mph 0.01 in Rain Light Rain
8:35 AM 46.4 °F 39.8 °F 41.0 °F 81% 29.61 in 8.0 mi West 16.1 mph 29.9 mph 0.05 in Rain Light Rain
8:55 AM 46.4 °F 38.7 °F 41.0 °F 81% 29.61 in 10.0 mi West 20.7 mph 33.4 mph 0.07 in Rain Light Rain
9:15 AM 46.4 °F 38.7 °F 42.8 °F 87% 29.61 in 5.0 mi West 20.7 mph 31.1 mph 0.01 in Rain Light Rain
9:35 AM 46.4 °F 38.7 °F 42.8 °F 87% 29.62 in 3.0 mi West 20.7 mph 35.7 mph 0.06 in Rain Light Rain
9:55 AM 46.4 °F 39.5 °F 42.8 °F 87% 29.62 in 2.0 mi West 17.3 mph 32.2 mph 0.17 in Rain Heavy Rain
10:15 AM 46.4 °F 39.5 °F 44.6 °F 93% 29.62 in 2.5 mi West 17.3 mph 27.6 mph 0.07 in Rain Rain
10:35 AM 46.4 °F 38.7 °F 44.6 °F 93% 29.62 in 2.5 mi West 20.7 mph 32.2 mph 0.19 in Rain Heavy Rain
10:55 AM 46.4 °F 39.2 °F 44.6 °F 93% 29.63 in 2.5 mi West 18.4 mph 28.8 mph 0.31 in Rain Heavy Rain
11:15 AM 46.4 °F 38.7 °F 44.6 °F 93% 29.64 in 2.5 mi West 20.7 mph 35.7 mph 0.10 in Rain Heavy Rain
11:35 AM 46.4 °F 37.5 °F 44.6 °F 93% 29.65 in 4.0 mi WNW 27.6 mph 34.5 mph 0.26 in Rain Heavy Rain
11:55 AM 46.4 °F 39.2 °F 44.6 °F 93% 29.66 in 3.0 mi West 18.4 mph 26.5 mph 0.41 in Rain Heavy Rain
12:15 PM 46.4 °F 37.5 °F 44.6 °F 93% 29.66 in 3.0 mi West 27.6 mph 35.7 mph 0.09 in Rain Heavy Rain
12:35 PM 46.4 °F 38.7 °F 44.6 °F 93% 29.68 in 3.0 mi West 20.7 mph 29.9 mph 0.20 in Rain Heavy Rain
12:55 PM 46.4 °F 38.1 °F 42.8 °F 87% 29.69 in 3.0 mi WNW 24.2 mph 36.8 mph 0.35 in Rain Rain
1:15 PM 46.4 °F 39.8 °F 42.8 °F 87% 29.69 in 3.0 mi West 16.1 mph 26.5 mph 0.15 in Rain Heavy Rain
1:35 PM 46.4 °F 38.3 °F 44.6 °F 93% 29.69 in 3.0 mi West 23.0 mph 31.1 mph 0.34 in Rain Heavy Rain
1:55 PM 46.4 °F 38.7 °F 42.8 °F 87% 29.70 in 2.5 mi West 20.7 mph 31.1 mph 0.52 in Rain Heavy Rain
2:15 PM 46.4 °F 38.7 °F 42.8 °F 87% 29.71 in 3.0 mi West 20.7 mph 31.1 mph 0.14 in Rain Heavy Rain
2:35 PM 46.4 °F 38.5 °F 42.8 °F 87% 29.72 in 3.0 mi West 21.9 mph 29.9 mph 0.36 in Rain Heavy Rain
2:55 PM 46.4 °F 38.7 °F 42.8 °F 87% 29.73 in 3.0 mi West 20.7 mph 35.7 mph 0.55 in Rain Heavy Rain
3:15 PM 46.4 °F 39.0 °F 42.8 °F 87% 29.74 in 2.5 mi West 19.6 mph 28.8 mph 0.11 in Rain Heavy Rain
3:35 PM 44.6 °F 35.7 °F 42.8 °F 93% 29.75 in 2.0 mi West 24.2 mph 36.8 mph 0.28 in Rain Heavy Rain
3:55 PM 44.6 °F 35.9 °F 41.0 °F 87% 29.75 in 2.0 mi West 23.0 mph 36.8 mph 0.42 in Rain Heavy Rain
4:15 PM 44.6 °F 36.4 °F 41.0 °F 87% 29.75 in 2.5 mi West 20.7 mph 34.5 mph 0.09 in Rain Heavy Rain
4:35 PM 44.6 °F 35.9 °F 41.0 °F 87% 29.76 in 2.5 mi West 23.0 mph 32.2 mph 0.25 in Rain Heavy Rain
4:55 PM 44.6 °F 36.4 °F 41.0 °F 87% 29.77 in 2.5 mi West 20.7 mph 33.4 mph 0.40 in Rain Heavy Rain
5:15 PM 44.6 °F 35.9 °F 41.0 °F 87% 29.77 in 3.0 mi West 23.0 mph 29.9 mph 0.08 in Rain Heavy Rain
5:35 PM 44.6 °F 35.9 °F 41.0 °F 87% 29.78 in 2.0 mi West 23.0 mph 27.6 mph 0.24 in Rain Heavy Rain
5:55 PM 44.6 °F 36.9 °F 42.8 °F 93% 29.79 in 3.0 mi West 18.4 mph 29.9 mph 0.36 in Rain Heavy Rain
6:15 PM 44.6 °F 36.1 °F 42.8 °F 93% 29.79 in 3.0 mi West 21.9 mph 28.8 mph 0.07 in Rain Rain
6:35 PM 44.6 °F 36.4 °F 42.8 °F 93% 29.80 in 2.5 mi West 20.7 mph 31.1 mph 0.17 in Rain Rain
6:55 PM 44.6 °F 36.4 °F 42.8 °F 93% 29.81 in 2.5 mi West 20.7 mph 31.1 mph 0.28 in Rain Rain
7:15 PM 44.6 °F 35.9 °F 44.6 °F 100% 29.82 in 2.0 mi WNW 23.0 mph 31.1 mph 0.09 in Rain Rain
7:35 PM 44.6 °F 37.2 °F 44.6 °F 100% 29.83 in 2.5 mi WNW 17.3 mph 28.8 mph 0.23 in Rain Rain
7:55 PM 44.6 °F 37.2 °F 44.6 °F 100% 29.84 in 3.0 mi West 17.3 mph 25.3 mph 0.33 in Rain Rain
8:15 PM 46.4 °F 39.5 °F 44.6 °F 93% 29.85 in 3.0 mi WNW 17.3 mph 26.5 mph 0.05 in Rain Rain
8:35 PM 46.4 °F 39.0 °F 44.6 °F 93% 29.86 in 2.5 mi WNW 19.6 mph 29.9 mph 0.12 in Rain Rain
8:55 PM 46.4 °F 39.8 °F 44.6 °F 93% 29.88 in 3.0 mi NW 16.1 mph 27.6 mph 0.25 in Rain Rain
9:15 PM 44.6 °F 37.8 °F 44.6 °F 100% 29.89 in 5.0 mi NW 15.0 mph 24.2 mph 0.01 in Rain Light Rain
9:35 PM 44.6 °F 37.8 °F 44.6 °F 100% 29.90 in 1.5 mi NW 15.0 mph 24.2 mph 0.03 in Rain Rain
9:55 PM 44.6 °F 37.4 °F 44.6 °F 100% 29.92 in 1.8 mi NW 16.1 mph 23.0 mph 0.04 in Rain Light Rain
10:15 PM 44.6 °F 36.9 °F 44.6 °F 100% 29.93 in 2.0 mi NW 18.4 mph 25.3 mph 0.04 in   Scattered Clouds
10:35 PM 44.6 °F 37.4 °F 44.6 °F 100% 29.94 in 1.8 mi NW 16.1 mph 19.6 mph 0.15 in Rain Heavy Rain
10:55 PM 44.6 °F 37.2 °F 44.6 °F 100% 29.95 in 3.0 mi NW 17.3 mph 26.5 mph 0.26 in Rain Rain
11:15 PM 44.6 °F 38.1 °F 44.6 °F 100% 29.96 in 2.5 mi NW 13.8 mph 24.2 mph 0.05 in Rain Light Rain
11:35 PM 44.6 °F 37.8 °F 44.6 °F 100% 29.97 in 3.0 mi NW 15.0 mph 25.3 mph 0.17 in Rain Light Rain
11:55 PM 44.6 °F 37.2 °F 44.6 °F 100% 29.99 in 2.5 mi NW 17.3 mph 26.5 mph 0.27 in Rain Rain